Find Starlink 31096

NORAD ID: 58592 Int'l Des: 2023-200 Owner: SPXS Country: US Constellation: starlink operational
LEOCIRCULAR

現在のビュー

3D地球を読み込み中...

About Starlink 31096

Starlink 31096 (NORAD 58592) is a starlink constellation satellite (v2 mini) launched Dec 19, 2023 by SPXS of US. It operates in LEO, CIRCULAR orbit with a mass of 730.00 kg.

次回通過

Passes for default location (London). Set your location on the main map for personalized predictions.

高度履歴

Loading altitude history...

軌道要素

1 58592U 23200D 26235.59769206 .00071813 00000-0 15475-2 0 9992
2 58592 42.9969 298.7139 0019600 32.2439 327.9613 15.43489607149224
Epoch: Aug 23, 2026 • Age: 11 hours

現在のステータス

高度 422.0 km
遠地点 / 近地点 N/A
速度 7.67 km/s
衛星直下点 11.30°N, 43.27°W
打ち上げ日 Dec 19, 2023
運用期間 2.6 years
タイプ internet

技術仕様

分類 Payload
質量 730.00 kg
乾燥質量 700.00 kg
総質量 730.00 kg
長さ 0.30 m
直径 4.10 m
スパン 29.00 m
形状 Box + pan
製造者 SPXS
バスタイプ Starlink V2M
フェーズステータス In Orbit
所有者/国 SPXS/US

Most Searched